indice_tiempo,precio_inferior,promedio_ponderado,precio_superior
2005-01-01,1.2,3.15,3.8
2005-02-01,1.2,3.12,3.8
2005-03-01,1.3,3.15,3.8
2005-04-01,1.3,3.14,4.0
2005-05-01,1.3,3.14,4.0
2005-06-01,1.3,3.12,4.0
2005-07-01,1.3,3.12,4.0
2005-08-01,1.3,3.12,4.0
2005-09-01,1.0,3.11,4.0
2005-10-01,1.0,3.05,4.0
2005-11-01,1.0,2.99,4.0
2005-12-01,1.2,2.98,4.0
2006-01-01,1.2,2.93,4.0
2006-02-01,1.2,2.84,4.0
2006-03-01,1.0,2.77,4.0
2006-04-01,1.0,2.77,4.0
2006-05-01,1.0,2.75,4.0
2006-06-01,1.0,2.76,4.0
2006-07-01,1.0,2.77,4.0
2006-08-01,1.0,2.82,4.0
2006-09-01,1.0,2.95,4.0
2006-10-01,1.0,2.96,4.0
2006-11-01,1.0,2.97,5.0
2006-12-01,1.0,2.97,4.0
2007-01-01,1.0,3.07,4.0
2007-02-01,1.0,3.06,4.0
2007-03-01,1.0,3.06,3.9
2007-04-01,1.0,3.06,3.9
2007-05-01,1.0,3.06,3.9
2007-06-01,1.0,3.12,4.0
2007-07-01,1.0,3.17,4.0
2007-08-01,1.0,3.17,4.0
2007-09-01,1.0,3.17,4.0
2007-10-01,1.0,3.18,4.0
2007-11-01,1.0,3.21,4.0
2007-12-01,1.0,3.35,4.0
2008-01-01,1.0,3.36,4.0
2008-02-01,1.0,3.38,4.0
2008-03-01,1.0,3.37,4.0
2008-04-01,1.0,3.46,4.5
2008-05-01,1.0,3.48,4.5
2008-06-01,1.0,3.47,4.5
2008-07-01,1.0,3.55,4.5
2008-08-01,1.0,3.66,4.5
2008-09-01,1.0,3.66,4.5
2008-10-01,1.0,3.77,5.2
2008-11-01,1.0,3.85,5.2
2008-12-01,1.0,3.86,5.2
2009-01-01,1.0,3.89,5.2
2009-02-01,1.0,4.19,5.0
2009-03-01,1.2,4.18,8.0
2009-04-01,1.2,4.38,8.0
2009-05-01,1.2,4.44,8.0
2009-06-01,1.2,4.42,8.0
2009-07-01,1.2,4.47,8.0
2009-08-01,1.2,4.67,8.0
2009-09-01,1.2,4.68,5.63
2009-10-01,1.7,4.68,5.63
2009-11-01,1.7,4.86,9.0
2009-12-01,1.7,4.93,8.0
2010-01-01,1.7,4.92,8.0
2010-02-01,1.7,4.94,8.0
2010-03-01,1.7,5.17,8.0
2010-04-01,1.7,5.18,7.0
2010-05-01,1.7,5.24,8.0
2010-06-01,1.6,5.47,7.5
2010-07-01,1.6,5.47,7.5
2010-08-01,1.6,5.48,7.5
2010-09-01,2.4,5.54,8.0
2010-10-01,2.0,5.96,7.5
2010-11-01,2.0,5.98,7.5
2010-12-01,1.7,5.98,7.5
2011-01-01,1.7,5.97,7.5
2011-02-01,2.0,6.32,8.0
2011-03-01,2.0,6.47,8.0
2011-04-01,2.0,6.47,8.0
2011-05-01,2.0,6.48,8.0
2011-06-01,2.0,6.61,8.5
2011-07-01,2.0,6.74,8.5
2011-08-01,2.0,6.52,8.5
2011-09-01,2.0,6.74,8.5
2011-10-01,2.0,6.76,8.75
2011-11-01,2.0,7.23,9.0
2011-12-01,2.0,7.28,9.0
2012-01-01,2.0,7.28,9.0
2012-02-01,2.0,7.28,9.0
2012-03-01,2.0,7.66,9.5
2012-04-01,2.0,7.88,9.5
2012-05-01,2.0,7.89,9.5
2012-06-01,2.0,7.9,9.5
2012-07-01,2.0,8.0,10.0
2012-08-01,2.0,8.03,10.0
2012-09-01,2.0,8.09,10.5
2012-10-01,2.0,8.51,11.0
2012-11-01,2.0,8.56,11.0
2012-12-01,2.0,8.58,11.0
2013-01-01,2.0,8.93,11.0
2013-02-01,2.0,9.03,11.0
2013-03-01,2.0,9.05,11.0
2013-04-01,2.0,9.09,11.5
2013-05-01,2.0,9.51,12.0
2013-06-01,2.0,9.51,12.0
2013-07-01,2.0,9.53,12.0
2013-08-01,2.0,9.55,12.0
2013-09-01,2.0,9.84,13.0
2013-10-01,2.0,10.51,13.0
2013-11-01,2.0,10.52,13.0
2013-12-01,2.0,10.54,16.36
2014-01-01,2.0,10.56,13.0
2014-02-01,2.0,11.42,14.0
2014-03-01,2.0,11.51,14.0
2014-04-01,2.0,11.6,16.5
2014-05-01,2.0,14.43,17.0
2014-06-01,2.8,14.36,17.0
2014-07-01,2.8,14.37,17.0
2014-08-01,2.8,15.03,19.0
2014-09-01,3.0,16.23,19.0
2014-10-01,3.0,16.26,19.0
2014-11-01,3.0,16.36,19.0
2014-12-01,3.0,17.42,22.0
2015-01-01,3.0,18.68,22.0
2015-02-01,3.0,18.56,22.0
2015-03-01,3.0,18.83,24.0
2015-04-01,3.0,20.3,24.0
2015-05-01,3.0,20.21,24.0
2015-06-01,3.0,21.54,27.5
2015-07-01,3.0,21.92,27.0
2015-08-01,3.0,21.97,27.0
2015-09-01,6.04,23.21,29.0
2015-10-01,3.0,24.11,29.0
2015-11-01,3.0,23.87,29.0
2015-12-01,3.0,24.04,29.0
2016-01-01,7.09,23.94,29.0
2016-02-01,7.07,25.47,32.0
2016-03-01,3.0,25.78,32.0
2016-04-01,7.0,25.88,32.0
2016-05-01,10.2,39.09,50.0
2016-06-01,10.2,38.61,48.0
2016-07-01,10.2,38.33,48.0
2016-08-01,13.19,38.48,50.0
2016-09-01,13.19,39.45,50.0
2016-10-01,13.19,39.54,50.0
2016-11-01,15.5,40.97,52.0
2016-12-01,15.5,41.25,52.0
2017-01-01,15.5,41.25,52.0
2017-02-01,15.5,42.24,55.0
2017-03-01,15.5,42.24,55.0
2017-04-01,16.4,44.11,57.0
2017-05-01,16.5,45.19,57.0
2017-06-01,16.5,45.36,57.0
2017-07-01,16.5,46.57,59.0
2017-08-01,16.5,47.33,59.0
2017-09-01,16.5,47.6,59.0
2017-10-01,16.5,48.46,61.0
2017-11-01,16.5,48.93,61.0
2017-12-01,16.5,49.08,61.0
2018-01-01,12.0,50.85,64.0
2018-02-01,16.5,50.98,64.0
2018-03-01,19.0,52.55,64.0
2018-04-01,12.0,52.34,66.0
2018-05-01,19.0,53.33,66.0
2018-06-01,12.0,53.14,66.0
2018-07-01,19.0,54.44,70.0
2018-08-01,19.5,56.24,70.0
2018-09-01,19.5,61.08,74.0
2018-10-01,21.5,60.98,74.0
2018-11-01,20.0,64.57,80.0
2018-12-01,21.5,66.03,80.0
2019-01-01,20.0,68.83,88.0
2019-02-01,24.9,69.83,88.0
2019-03-01,24.9,73.32,94.0
2019-04-01,26.5,75.71,94.0
2019-05-01,28.2,76.17,102.0
2019-06-01,29.0,77.37,100.0
2019-07-01,28.0,77.44,102.0
2019-08-01,29.0,81.46,110.0
2019-09-01,29.0,86.58,120.0
2019-10-01,37.0,90.39,130.0
2019-11-01,30.0,95.58,145.0
2019-12-01,30.0,104.07,145.0
